Weather History for Trinidad, CO

Change the Weather History Date:

Thursday, June 28, 2012

  Actual Average Record
Temperature  
Mean Temperature 81 °F 72 °F  
Max Temperature 98 °F 88 °F 102 °F (1990)
Min Temperature 63 °F 56 °F 49 °F (1949)
Degree Days  
Heating Degree Days 0 0  
Month to date heating degree days 2 38  
Since 1 June heating degree days 2 38  
Since 1 July heating degree days 4735 5533  
Cooling Degree Days 16 7  
Month to date cooling degree days 295 126  
Year to date cooling degree days 341 154  
Since 1 June cooling degree days 295 126  
Growing Degree Days 30 (Base 50)    
Moisture  
Dew Point 40 °F    
Average Humidity 28    
Maximum Humidity 43    
Minimum Humidity 12    
Precipitation  
Precipitation T in 0.05 in 0.43 in (1950)
Month to date precipitation 0.01 1.32  
Year to date precipitation 5.84  
Snow  
Snow 0.00 in - - ()
Month to date snowfall 0.0  
Since 1 June snowfall 0.0  
Snow Depth 0.00 in    
Sea Level Pressure  
Sea Level Pressure 29.96 in    
Wind  
Wind Speed 10 mph (West)    
Max Wind Speed 38 mph    
Max Gust Speed 48 mph    
Visibility 10 miles    
Events Rain , Thunderstorm    
T = Trace of Precipitation, MM = Missing Value Source: NWS Daily Summary

Daily Weather History Graph

Daily Weather History Graph

Search for Another Location

Airport:

Trip Planner

Search our weather history database for the weather conditions in past years. The results will help you decide how hot, cold, wet, or windy it might be!

Date:

Astronomy

Jun. 28, 2012 Rise Set
Actual Time 5:39 AM MDT 8:21 PM MDT
Civil Twilight 5:08 AM MDT 8:52 PM MDT
Nautical Twilight 4:30 AM MDT 9:31 PM MDT
Astronomical Twilight 3:46 AM MDT 10:14 PM MDT
Moon 3:02 PM MDT (6/28) 1:09 AM MDT (6/28)
Length of Visible Light 15h 44m
Length of Day
14h 42m
Waxing Gibbous, 68% of the Moon is Illuminated
Jun 28
Waxing Gibbous
Jul 3
Full
Jul 10
Last Quarter
Jul 18
New
Jul 26
First Quarter

Hourly Weather History & Observations

Time (MDT) Temp. Dew Point Humidity Pressure Visibility Wind Dir Wind Speed Gust Speed Precip Events Conditions
12:54 AM 73.9 °F 39.9 °F 29% 29.88 in 10.0 mi East 4.6 mph - N/A   Clear
1:54 AM 68.0 °F 39.9 °F 36% 29.88 in 10.0 mi Calm Calm - N/A   Clear
2:54 AM 63.0 °F 39.0 °F 41% 29.89 in 10.0 mi West 6.9 mph - N/A   Clear
3:54 AM 66.0 °F 39.0 °F 37% 29.88 in 10.0 mi WSW 11.5 mph - N/A   Clear
4:54 AM 66.9 °F 39.0 °F 36% 29.88 in 10.0 mi WSW 13.8 mph - N/A   Clear
5:54 AM 66.0 °F 37.9 °F 36% 29.91 in 10.0 mi WSW 11.5 mph - N/A   Clear
6:54 AM 70.0 °F 37.9 °F 31% 29.92 in 10.0 mi WSW 17.3 mph - N/A   Clear
7:43 AM 73.4 °F 39.2 °F 29% 30.22 in 10.0 mi WNW 11.5 mph - N/A   Clear
7:54 AM 75.0 °F 39.9 °F 28% 29.94 in 10.0 mi West 10.4 mph - N/A   Clear
8:54 AM 82.0 °F 42.1 °F 24% 29.93 in 10.0 mi NW 4.6 mph - N/A   Clear
9:54 AM 89.1 °F 39.0 °F 17% 29.90 in 10.0 mi NNW 6.9 mph - N/A   Clear
10:54 AM 93.0 °F 37.0 °F 14% 29.89 in 10.0 mi NNW 11.5 mph 16.1 mph N/A   Clear
11:54 AM 96.1 °F 35.1 °F 12% 29.87 in 10.0 mi North 11.5 mph - N/A   Clear
12:52 PM 89.6 °F 33.8 °F 14% 30.20 in 8.0 mi SE 24.2 mph 48.3 mph 0.00 in Rain Light Rain
12:54 PM 89.1 °F 33.1 °F 14% 29.90 in 8.0 mi SSE 17.3 mph 48.3 mph 0.00 in Rain Light Rain
1:25 PM 80.6 °F 46.4 °F 30% 30.24 in 10.0 mi SSE 11.5 mph 27.6 mph 0.00 in Rain , Thunderstorm Light Rain
1:45 PM 84.2 °F 42.8 °F 23% 30.22 in 10.0 mi East 8.1 mph - 0.00 in   Partly Cloudy
1:54 PM 87.1 °F 37.9 °F 18% 29.93 in 10.0 mi ESE 8.1 mph - 0.00 in   Clear
2:54 PM 93.9 °F 34.0 °F 12% 29.88 in 10.0 mi South 13.8 mph 20.7 mph N/A   Clear
3:54 PM 90.0 °F 35.1 °F 14% 29.88 in 10.0 mi SW 11.5 mph 17.3 mph N/A   Clear
4:54 PM 88.0 °F 37.0 °F 16% 29.89 in 10.0 mi WSW 12.7 mph - N/A   Clear
5:54 PM 84.0 °F 39.0 °F 20% 29.92 in 10.0 mi NW 8.1 mph - N/A   Partly Cloudy
6:54 PM 80.1 °F 44.1 °F 28% 29.97 in 10.0 mi West 13.8 mph 24.2 mph N/A   Clear
7:54 PM 79.0 °F 45.0 °F 30% 29.92 in 10.0 mi NW 6.9 mph - N/A   Clear
8:16 PM 78.8 °F 44.6 °F 30% 30.20 in 10.0 mi WSW 9.2 mph - N/A   Clear
8:54 PM 77.0 °F 45.0 °F 32% 29.90 in 10.0 mi West 11.5 mph - N/A   Clear
9:54 PM 75.0 °F 45.0 °F 34% 29.90 in 10.0 mi NW 3.5 mph - N/A   Clear
10:54 PM 75.0 °F 44.1 °F 33% 29.89 in 10.0 mi NW 8.1 mph - N/A   Partly Cloudy
11:54 PM 73.0 °F 44.1 °F 35% 29.88 in 10.0 mi WNW 5.8 mph - N/A   Clear